TimeEST,TemperatureF,Dew PointF,Humidity,Sea Level PressureIn,VisibilityMPH,Wind Direction,Wind SpeedMPH,Gust SpeedMPH,PrecipitationIn,Events,Conditions,WindDirDegrees,DateUTC
12:15 AM,33.8,30.2,87,29.70,2.0,West,6.9,-,0.01,Snow,Light Snow,280,2014-01-19 05:15:00
12:54 AM,33.1,30.0,89,29.70,2.0,WNW,9.2,-,0.01,Snow,Light Snow,300,2014-01-19 05:54:00
1:54 AM,33.1,30.0,89,29.72,2.0,WNW,6.9,-,0.01,Snow,Light Snow,300,2014-01-19 06:54:00
2:13 AM,33.8,30.2,87,29.73,3.0,WNW,5.8,-,0.00,Snow,Light Snow,290,2014-01-19 07:13:00
2:54 AM,33.1,30.0,89,29.71,3.0,West,6.9,-,0.00,Snow,Light Snow,280,2014-01-19 07:54:00
3:54 AM,33.1,28.9,85,29.71,9.0,WNW,5.8,-,0.00,Snow,Light Snow,290,2014-01-19 08:54:00
4:05 AM,33.8,28.4,81,29.71,8.0,WNW,5.8,-,0.00,,Overcast,290,2014-01-19 09:05:00
4:19 AM,33.8,30.2,87,29.71,8.0,West,4.6,-,0.00,,Overcast,270,2014-01-19 09:19:00
4:54 AM,33.1,30.0,89,29.71,8.0,SW,9.2,-,0.00,Snow,Light Snow,220,2014-01-19 09:54:00
5:54 AM,33.1,28.9,85,29.70,8.0,SW,9.2,-,0.00,,Overcast,230,2014-01-19 10:54:00
6:54 AM,32.0,28.0,85,29.70,10.0,West,4.6,-,N/A,,Overcast,260,2014-01-19 11:54:00
7:16 AM,32.0,26.6,80,29.70,10.0,SW,15.0,-,N/A,,Overcast,230,2014-01-19 12:16:00
7:54 AM,30.9,27.0,85,29.70,10.0,SW,15.0,-,N/A,,Overcast,230,2014-01-19 12:54:00
8:23 AM,30.2,26.6,86,29.70,2.0,SW,16.1,-,0.00,Snow,Light Snow,230,2014-01-19 13:23:00
8:27 AM,30.2,26.6,86,29.70,1.2,WSW,16.1,-,0.00,Snow,Light Snow,240,2014-01-19 13:27:00
8:32 AM,30.2,26.6,86,29.70,0.8,WSW,13.8,-,0.00,Snow,Light Snow,240,2014-01-19 13:32:00
8:54 AM,30.0,27.0,88,29.69,0.8,SW,13.8,-,0.00,Snow,Light Snow,220,2014-01-19 13:54:00
9:21 AM,30.2,26.6,86,29.69,0.5,SW,16.1,-,0.01,Fog-Snow,Light Snow,220,2014-01-19 14:21:00
9:33 AM,30.2,26.6,86,29.68,1.0,SW,16.1,-,0.01,Snow,Light Snow,220,2014-01-19 14:33:00
9:54 AM,30.0,26.1,85,29.69,2.0,SW,18.4,-,0.02,Snow,Light Snow,230,2014-01-19 14:54:00
10:17 AM,30.2,24.8,80,29.68,4.0,SW,18.4,-,0.00,Snow,Light Snow,230,2014-01-19 15:17:00
10:54 AM,30.9,25.0,79,29.65,9.0,SW,19.6,27.6,0.00,,Mostly Cloudy,230,2014-01-19 15:54:00
11:19 AM,30.2,23.0,75,29.64,10.0,WSW,18.4,33.4,N/A,,Overcast,250,2014-01-19 16:19:00
11:54 AM,30.9,23.0,72,29.62,10.0,WSW,23.0,31.1,N/A,,Overcast,240,2014-01-19 16:54:00
12:54 PM,32.0,23.0,69,29.59,10.0,WSW,19.6,25.3,N/A,,Mostly Cloudy,250,2014-01-19 17:54:00
1:54 PM,33.1,19.9,59,29.57,10.0,WSW,21.9,34.5,N/A,,Partly Cloudy,250,2014-01-19 18:54:00
2:54 PM,34.0,19.9,56,29.56,10.0,WSW,17.3,28.8,N/A,,Scattered Clouds,240,2014-01-19 19:54:00
3:54 PM,34.0,21.0,59,29.56,10.0,SW,18.4,-,N/A,,Scattered Clouds,230,2014-01-19 20:54:00
4:54 PM,34.0,21.9,61,29.55,10.0,SW,10.4,-,N/A,,Mostly Cloudy,220,2014-01-19 21:54:00
5:54 PM,33.1,21.9,64,29.56,10.0,SW,16.1,-,N/A,,Overcast,230,2014-01-19 22:54:00
6:54 PM,32.0,21.0,64,29.58,10.0,SW,17.3,-,N/A,,Mostly Cloudy,230,2014-01-19 23:54:00
7:54 PM,30.9,21.0,67,29.58,10.0,SW,18.4,-,N/A,,Partly Cloudy,220,2014-01-20 00:54:00
8:54 PM,30.9,19.9,64,29.58,10.0,SW,21.9,27.6,N/A,,Mostly Cloudy,230,2014-01-20 01:54:00
9:54 PM,30.9,19.9,64,29.59,10.0,SW,17.3,-,N/A,,Partly Cloudy,230,2014-01-20 02:54:00
10:54 PM,30.9,19.9,64,29.58,10.0,SW,17.3,-,N/A,,Clear,220,2014-01-20 03:54:00
11:54 PM,30.9,19.9,64,29.56,10.0,SW,16.1,-,N/A,,Scattered Clouds,220,2014-01-20 04:54:00